Tracking 20232 objects as of 20-Jan-2020
HD Live streaming from Space Station
objects crossing your sky now

TITAN 3C TRANSTAGE DEB

Track TITAN 3C TRANSTAGE DEB now!
10-day predictions


NORAD ID: 19595
Int'l Code: 1965-108AB
Perigee: 366.5 km
Apogee: 21,049.4 km
Inclination: 27.1 °
Period: 370.2 minutes
Semi major axis: 17078 km
RCS: 0.0425 m2 (small)
Launch date: December 21, 1965
Source: United States (US)
Launch site: AIR FORCE EASTERN TEST RANGE (AFETR)

Note: This is SATELLITE DEBRIS
aabbcc
Your satellite tracking list
Your tracking list is empty




NASA's NSSDC Master Catalog

Two Line Element Set (TLE):
1 19595U 65108AB  20006.26800459  .00001262  00000-0  10098-2 0  9992
2 19595  27.0852  33.0686 6055078 258.7707  31.5161  3.88965197350931
Source of the keplerian elements: AFSPC